{"data":{"norad_id":63446,"epoch":"2026-05-24T23:56:01.636224Z","epoch_age_seconds":74956,"freshness":"FRESH","line1":"1 63446U 25069P   26144.99724116  .00033926  00000+0  78525-3 0  9993","line2":"2 63446  53.1584 145.4840 0001235  78.5370 281.5775 15.42173981 65072","mean_motion":15.42173981,"eccentricity":0.0001235,"inclination_deg":53.1584,"raan_deg":145.484,"arg_perigee_deg":78.537,"mean_anomaly_deg":281.5775,"bstar":0.00078525,"rev_number":6507,"period_min":93.374678715968,"perigee_km":438.85244525813,"apogee_km":440.53644962565,"semimajor_km":6817.8314474419,"source":"CELESTRAK","updated_at":"2026-05-25T13:38:20.000697Z"}}